RYR9CA EICK-EGGP

Flight info

Callsign RYR9CA
Flight time 0h 44m
Altitude 31000
Route TISMO1S TISMO DCT BOFUM
Aircraft B738/M-SDE2E3FGHIRWXY/LB1

Departure

Time 2026-05-06 16:48
Airport Cork International Airport (EICK)

Arrival

Time 2026-05-06 17:32
Airport Liverpool John Lennon Airport (EGGP)
Time Latitude Longitude Altitude Speed Heading
2026-05-06 16:42 51.84926 -8.49156 503 ft 4 kts 69°
2026-05-06 16:42 51.84917 -8.49195 503 ft 2 kts 70°
2026-05-06 16:42 51.84908 -8.49227 503 ft 4 kts 51°
2026-05-06 16:43 51.84889 -8.49248 503 ft 4 kts 357°
2026-05-06 16:43 51.84879 -8.49246 503 ft 1 kts 340°
2026-05-06 16:45 51.84881 -8.49247 503 ft 1 kts 340°
2026-05-06 16:45 51.84901 -8.49259 503 ft 5 kts 341°
2026-05-06 16:45 51.84951 -8.49281 503 ft 10 kts 346°
2026-05-06 16:46 51.85025 -8.49321 503 ft 12 kts 340°
2026-05-06 16:46 51.85100 -8.49366 503 ft 12 kts 338°
2026-05-06 16:46 51.85129 -8.49468 503 ft 11 kts 239°
2026-05-06 16:46 51.85065 -8.49538 503 ft 11 kts 204°
2026-05-06 16:47 51.85009 -8.49612 503 ft 9 kts 220°
2026-05-06 16:47 51.84993 -8.49615 503 ft 2 kts 161°
2026-05-06 16:47 51.84735 -8.49470 503 ft 77 kts 160°
2026-05-06 16:47 51.84012 -8.49043 504 ft 142 kts 160°
2026-05-06 16:48 51.82974 -8.48457 890 ft 163 kts 161°
2026-05-06 16:48 51.81902 -8.47871 1810 ft 165 kts 163°
2026-05-06 16:48 51.80748 -8.47299 2276 ft 184 kts 162°
2026-05-06 16:48 51.79493 -8.46618 2786 ft 197 kts 159°
2026-05-06 16:49 51.78405 -8.45136 2989 ft 222 kts 121°
2026-05-06 16:49 51.78135 -8.42655 3623 ft 231 kts 81°
2026-05-06 16:49 51.78900 -8.40273 4026 ft 254 kts 44°
2026-05-06 16:49 51.80369 -8.38579 4596 ft 266 kts 33°
2026-05-06 16:50 51.81923 -8.36930 5361 ft 270 kts 33°
2026-05-06 16:50 51.83499 -8.35241 6082 ft 274 kts 33°
2026-05-06 16:50 51.85095 -8.33518 6811 ft 278 kts 32°
2026-05-06 16:50 51.86706 -8.31743 7506 ft 282 kts 34°
2026-05-06 16:51 51.88329 -8.29974 8302 ft 282 kts 32°
2026-05-06 16:51 51.89998 -8.28231 8927 ft 289 kts 32°
2026-05-06 16:51 51.91688 -8.26442 9694 ft 291 kts 33°
2026-05-06 16:51 51.93382 -8.24589 10330 ft 298 kts 34°
2026-05-06 16:52 51.95147 -8.22614 10524 ft 320 kts 34°
2026-05-06 16:52 51.97025 -8.20478 10715 ft 340 kts 35°
2026-05-06 16:52 51.99009 -8.18197 10922 ft 359 kts 35°
2026-05-06 16:52 52.01075 -8.15803 11300 ft 370 kts 35°
2026-05-06 16:53 52.03181 -8.13354 11898 ft 374 kts 34°
2026-05-06 16:53 52.05306 -8.10882 12604 ft 376 kts 35°
2026-05-06 16:53 52.07440 -8.08395 13296 ft 380 kts 35°
2026-05-06 16:53 52.09600 -8.05863 13880 ft 386 kts 35°
2026-05-06 16:54 52.11783 -8.03308 14561 ft 387 kts 34°
2026-05-06 16:54 52.13958 -8.00701 15204 ft 391 kts 39°
2026-05-06 16:54 52.15967 -7.97686 15847 ft 395 kts 44°
2026-05-06 16:54 52.17872 -7.94429 16478 ft 398 kts 46°
2026-05-06 16:55 52.19744 -7.91086 17168 ft 401 kts 46°
2026-05-06 16:55 52.21633 -7.87699 17733 ft 406 kts 46°
2026-05-06 16:55 52.23545 -7.84298 18378 ft 408 kts 45°
2026-05-06 16:55 52.25485 -7.80875 18885 ft 412 kts 45°
2026-05-06 16:56 52.27442 -7.77457 19486 ft 413 kts 46°
2026-05-06 16:56 52.29417 -7.74041 20060 ft 415 kts 45°
2026-05-06 16:56 52.31409 -7.70609 20579 ft 418 kts 45°
2026-05-06 16:56 52.33387 -7.67196 21085 ft 421 kts 45°
2026-05-06 16:57 52.35405 -7.63708 21603 ft 424 kts 45°
2026-05-06 16:57 52.37435 -7.60194 22114 ft 426 kts 45°
2026-05-06 16:57 52.39475 -7.56655 22615 ft 429 kts 45°
2026-05-06 16:57 52.41530 -7.53087 23095 ft 432 kts 45°
2026-05-06 16:58 52.43597 -7.49493 23550 ft 435 kts 45°
2026-05-06 16:58 52.45677 -7.45870 23955 ft 437 kts 45°
2026-05-06 16:58 52.47769 -7.42227 24329 ft 440 kts 45°
2026-05-06 16:58 52.49869 -7.38562 24745 ft 441 kts 45°
2026-05-06 16:59 52.51967 -7.34890 25168 ft 442 kts 45°
2026-05-06 16:59 52.54074 -7.31197 25578 ft 443 kts 45°
2026-05-06 16:59 52.56175 -7.27494 26053 ft 442 kts 45°
2026-05-06 16:59 52.58279 -7.23797 26459 ft 443 kts 45°
2026-05-06 17:00 52.60391 -7.20087 26795 ft 446 kts 45°
2026-05-06 17:00 52.62509 -7.16349 27126 ft 448 kts 45°
2026-05-06 17:00 52.64640 -7.12596 27463 ft 450 kts 45°
2026-05-06 17:00 52.66778 -7.08821 27842 ft 450 kts 45°
2026-05-06 17:01 52.68905 -7.05057 28356 ft 447 kts 45°
2026-05-06 17:01 52.71012 -7.01317 28930 ft 444 kts 45°
2026-05-06 17:01 52.73113 -6.97582 29366 ft 443 kts 45°
2026-05-06 17:01 52.75208 -6.93855 29835 ft 442 kts 45°
2026-05-06 17:02 52.77295 -6.90139 30295 ft 440 kts 45°
2026-05-06 17:02 52.79343 -6.86484 30686 ft 438 kts 45°
2026-05-06 17:02 52.81414 -6.82785 30978 ft 439 kts 45°
2026-05-06 17:03 52.85570 -6.75344 30977 ft 439 kts 45°
2026-05-06 17:03 52.89684 -6.67953 30978 ft 435 kts 45°
2026-05-06 17:04 52.93785 -6.60566 30993 ft 436 kts 45°
2026-05-06 17:04 52.97870 -6.53117 30987 ft 437 kts 45°
2026-05-06 17:05 53.01995 -6.45669 30983 ft 438 kts 45°
2026-05-06 17:05 53.06122 -6.38197 30989 ft 439 kts 45°
2026-05-06 17:06 53.10245 -6.30688 30986 ft 440 kts 45°
2026-05-06 17:06 53.14361 -6.23158 30999 ft 439 kts 45°
2026-05-06 17:07 53.18470 -6.15619 30983 ft 439 kts 45°
2026-05-06 17:07 53.22575 -6.08062 30786 ft 441 kts 45°
2026-05-06 17:07 53.24622 -6.04284 30430 ft 435 kts 45°
2026-05-06 17:08 53.26641 -6.00551 29947 ft 431 kts 45°
2026-05-06 17:08 53.28637 -5.96857 29450 ft 426 kts 45°
2026-05-06 17:08 53.29971 -5.94383 29137 ft 422 kts 45°
2026-05-06 17:08 53.31930 -5.90751 28665 ft 418 kts 45°
2026-05-06 17:09 53.33862 -5.87160 28196 ft 414 kts 45°
2026-05-06 17:09 53.35779 -5.83594 27735 ft 409 kts 45°
2026-05-06 17:09 53.37654 -5.80102 27276 ft 408 kts 45°
2026-05-06 17:09 53.39559 -5.76550 26835 ft 412 kts 45°
2026-05-06 17:10 53.41479 -5.72964 26370 ft 412 kts 45°
2026-05-06 17:10 53.43387 -5.69395 25904 ft 409 kts 46°
2026-05-06 17:10 53.45278 -5.65848 25450 ft 406 kts 46°
2026-05-06 17:10 53.47152 -5.62331 24993 ft 403 kts 46°
2026-05-06 17:11 53.49016 -5.58830 24555 ft 401 kts 46°
2026-05-06 17:11 53.50865 -5.55350 24112 ft 398 kts 46°
2026-05-06 17:11 53.52516 -5.51621 23641 ft 400 kts 60°
2026-05-06 17:11 53.53462 -5.47227 23108 ft 402 kts 77°
2026-05-06 17:12 53.53647 -5.42530 22590 ft 403 kts 91°
2026-05-06 17:12 53.53501 -5.37850 22134 ft 400 kts 92°
2026-05-06 17:12 53.53342 -5.33205 21679 ft 397 kts 92°
2026-05-06 17:12 53.53198 -5.28587 21241 ft 394 kts 92°
2026-05-06 17:13 53.53074 -5.24002 20812 ft 391 kts 92°
2026-05-06 17:13 53.52959 -5.19452 20388 ft 389 kts 92°
2026-05-06 17:13 53.52844 -5.14910 19976 ft 389 kts 92°
2026-05-06 17:13 53.52711 -5.10365 19553 ft 389 kts 92°
2026-05-06 17:14 53.52567 -5.05830 19129 ft 388 kts 93°
2026-05-06 17:14 53.52420 -5.01313 18704 ft 386 kts 93°
2026-05-06 17:14 53.52274 -4.96817 18280 ft 384 kts 93°
2026-05-06 17:14 53.52130 -4.92351 17800 ft 382 kts 93°
2026-05-06 17:15 53.51985 -4.87906 17351 ft 380 kts 93°
2026-05-06 17:15 53.51839 -4.83492 16913 ft 377 kts 93°
2026-05-06 17:15 53.51693 -4.79112 16492 ft 374 kts 93°
2026-05-06 17:15 53.51547 -4.74762 16074 ft 372 kts 93°
2026-05-06 17:16 53.51401 -4.70435 15658 ft 370 kts 93°
2026-05-06 17:16 53.51254 -4.66136 15248 ft 367 kts 93°
2026-05-06 17:16 53.51106 -4.61865 14848 ft 365 kts 93°
2026-05-06 17:16 53.50958 -4.57615 14442 ft 363 kts 93°
2026-05-06 17:17 53.50810 -4.53389 14053 ft 362 kts 93°
2026-05-06 17:17 53.50661 -4.49181 13631 ft 360 kts 93°
2026-05-06 17:17 53.50510 -4.44987 13190 ft 359 kts 93°
2026-05-06 17:17 53.50359 -4.40815 12772 ft 356 kts 93°
2026-05-06 17:18 53.50207 -4.36674 12361 ft 354 kts 93°
2026-05-06 17:18 53.50055 -4.32566 11960 ft 351 kts 93°
2026-05-06 17:18 53.49903 -4.28488 11571 ft 349 kts 93°
2026-05-06 17:18 53.49750 -4.24434 11191 ft 346 kts 93°
2026-05-06 17:19 53.49598 -4.20411 10814 ft 344 kts 93°
2026-05-06 17:19 53.49446 -4.16460 10672 ft 334 kts 93°
2026-05-06 17:19 53.49298 -4.12609 10518 ft 326 kts 93°
2026-05-06 17:19 53.49150 -4.08868 10376 ft 317 kts 93°
2026-05-06 17:20 53.49008 -4.05219 10242 ft 309 kts 93°
2026-05-06 17:20 53.48871 -4.01710 10116 ft 301 kts 93°
2026-05-06 17:20 53.48733 -3.98246 9972 ft 294 kts 93°
2026-05-06 17:20 53.48484 -3.94846 9684 ft 293 kts 104°
2026-05-06 17:21 53.47879 -3.91613 9447 ft 289 kts 110°
2026-05-06 17:21 53.47187 -3.88454 9161 ft 287 kts 111°
2026-05-06 17:21 53.46495 -3.85322 8887 ft 285 kts 110°
2026-05-06 17:21 53.45818 -3.82205 8613 ft 284 kts 110°
2026-05-06 17:22 53.45154 -3.79098 8338 ft 282 kts 110°
2026-05-06 17:22 53.44502 -3.76004 8059 ft 281 kts 110°
2026-05-06 17:22 53.43852 -3.72927 7794 ft 279 kts 110°
2026-05-06 17:22 53.43224 -3.69853 7527 ft 278 kts 110°
2026-05-06 17:23 53.42586 -3.66811 7261 ft 276 kts 111°
2026-05-06 17:23 53.41961 -3.63776 6995 ft 275 kts 111°
2026-05-06 17:23 53.41328 -3.60766 6726 ft 273 kts 112°
2026-05-06 17:23 53.40587 -3.57844 6475 ft 271 kts 115°
2026-05-06 17:24 53.39814 -3.54966 6191 ft 270 kts 115°
2026-05-06 17:24 53.39044 -3.52105 5915 ft 269 kts 115°
2026-05-06 17:24 53.38280 -3.49255 5649 ft 267 kts 114°
2026-05-06 17:24 53.37517 -3.46433 5387 ft 265 kts 116°
2026-05-06 17:25 53.36758 -3.43625 5118 ft 264 kts 114°
2026-05-06 17:25 53.36025 -3.40824 4861 ft 262 kts 114°
2026-05-06 17:25 53.35292 -3.38045 4609 ft 260 kts 114°
2026-05-06 17:25 53.34567 -3.35320 4499 ft 253 kts 114°
2026-05-06 17:26 53.33860 -3.32669 4385 ft 246 kts 114°
2026-05-06 17:26 53.33172 -3.30091 4284 ft 239 kts 114°
2026-05-06 17:26 53.32601 -3.27530 4179 ft 232 kts 107°
2026-05-06 17:26 53.32215 -3.24957 4047 ft 226 kts 102°
2026-05-06 17:27 53.31970 -3.22380 3859 ft 222 kts 97°
2026-05-06 17:27 53.31877 -3.19849 3644 ft 215 kts 91°
2026-05-06 17:27 53.31929 -3.17392 3418 ft 208 kts 87°
2026-05-06 17:27 53.32031 -3.15006 3189 ft 205 kts 87°
2026-05-06 17:28 53.32131 -3.12677 2973 ft 196 kts 87°
2026-05-06 17:28 53.32227 -3.10453 2767 ft 187 kts 87°
2026-05-06 17:28 53.32300 -3.08316 2603 ft 179 kts 87°
2026-05-06 17:28 53.32390 -3.06318 2425 ft 167 kts 85°
2026-05-06 17:29 53.32492 -3.04430 2227 ft 164 kts 85°
2026-05-06 17:29 53.32576 -3.02534 2012 ft 162 kts 86°
2026-05-06 17:29 53.32656 -3.00682 1784 ft 159 kts 86°
2026-05-06 17:29 53.32736 -2.98848 1573 ft 158 kts 86°
2026-05-06 17:30 53.32820 -2.97018 1346 ft 157 kts 85°
2026-05-06 17:30 53.32897 -2.95218 1139 ft 154 kts 85°
2026-05-06 17:30 53.32985 -2.93437 928 ft 151 kts 84°
2026-05-06 17:30 53.33074 -2.91699 745 ft 152 kts 85°
2026-05-06 17:31 53.33142 -2.89932 514 ft 151 kts 86°
2026-05-06 17:31 53.33218 -2.88182 299 ft 151 kts 85°
2026-05-06 17:31 53.33293 -2.86460 115 ft 144 kts 85°
2026-05-06 17:31 53.33363 -2.84989 93 ft 100 kts 85°
2026-05-06 17:32 53.33403 -2.84142 93 ft 59 kts 82°
2026-05-06 17:32 53.33426 -2.83744 97 ft 19 kts 82°
2026-05-06 17:32 53.33513 -2.83646 94 ft 17 kts 345°
2026-05-06 17:32 53.33582 -2.83765 93 ft 16 kts 275°
2026-05-06 17:33 53.33578 -2.83948 93 ft 15 kts 266°
2026-05-06 17:33 53.33569 -2.84123 95 ft 15 kts 264°
2026-05-06 17:33 53.33558 -2.84290 95 ft 14 kts 264°
2026-05-06 17:33 53.33550 -2.84449 93 ft 14 kts 266°
2026-05-06 17:34 53.33545 -2.84602 93 ft 13 kts 268°
2026-05-06 17:34 53.33538 -2.84754 94 ft 14 kts 265°
2026-05-06 17:34 53.33530 -2.84921 93 ft 14 kts 265°
2026-05-06 17:34 53.33524 -2.85082 95 ft 14 kts 269°
2026-05-06 17:35 53.33519 -2.85236 94 ft 13 kts 266°
2026-05-06 17:35 53.33511 -2.85385 93 ft 13 kts 264°
2026-05-06 17:35 53.33521 -2.85499 94 ft 5 kts 333°
2026-05-06 17:36 53.33589 -2.85519 96 ft 6 kts 333°
2026-05-06 17:36 53.33614 -2.85571 93 ft 6 kts 317°
2026-05-06 17:36 53.33645 -2.85588 93 ft 2 kts 351°
2026-05-06 17:36 53.33657 -2.85590 94 ft 2 kts 354°
2026-05-06 17:37 53.33660 -2.85591 94 ft 0 kts 354°